[[{"header":{"parameterUnit":"m.s-1","parameterCategory":1,"la1":30.2991,"la2":30.254,"lo1":-89.0895,"lo2":-89.0444,"dy":0.0017,"dx":0.0017,"nx":28,"ny":28,"refTime":"2025-01-07T03:00:00:Z","depth":0,"parameterNumber":2,"parameterNumberName":"U-component_of_WINDS"},"data":[0,0,0,0,0,0,0,0,0,0,0,0,0,0,0,0,0,0,0,0,0,0,0,0,0,0,0,0,0,0,0,0,0,0,0,0,0,0,0,0,0,0,0,0,0,0,0,0,0,0,0,0,0,0,0,0,0,0,-1.3156,-1.3157,0,-1.3205,-1.3206,-1.3206,-1.3181,-1.318,-1.3179,-1.3177,-1.3229,-1.3232,-1.3234,0,0,0,0,0,0,0,0,0,0,0,0,0,-1.3041,-1.3043,-1.3156,-1.3157,-1.3157,-1.3205,-1.3206,-1.3207,-1.3181,-1.318,-1.3178,-1.3177,-1.3228,-1.3231,-1.3235,0,0,0,0,0,0,0,0,0,0,0,0,0,-1.3091,-1.3044,-1.3156,-1.315,-1.315,-1.3205,-1.3206,-1.3207,-1.3182,-1.318,-1.3178,-1.3176,-1.3227,-1.3231,-1.3235,-1.3298,0,0,-1.3247,-1.3249,0,0,0,0,0,0,0,0,-1.3088,-1.3095,-1.3151,-1.3151,-1.3151,-1.3185,-1.3184,-1.3238,-1.3182,-1.317,-1.3177,-1.3175,-1.3216,-1.3221,-1.3235,-1.3301,-1.3303,-1.3247,-1.325,-1.3251,-1.3252,0,0,0,0,0,0,0,-1.3085,-1.3093,-1.3176,-1.3152,-1.3152,-1.3146,-1.3151,-1.3194,-1.3204,-1.3171,-1.3169,-1.3175,-1.3216,-1.3231,-1.3236,-1.3304,-1.3247,-1.3251,-1.3253,-1.3255,-1.3424,-1.3426,0,0,0,0,0,0,-1.3081,-1.309,-1.3174,-1.3177,-1.3114,-1.3149,-1.3155,-1.3176,-1.3203,-1.3205,-1.3177,-1.3174,-1.3225,-1.3231,-1.3237,-1.3314,-1.3251,-1.3255,-1.3257,-1.3422,-1.3425,-1.3427,0,0,0,0,0,0,-1.3079,-1.3089,-1.3172,-1.3133,-1.3143,-1.3154,-1.3178,-1.3178,-1.3193,-1.3207,-1.3209,-1.319,-1.3224,-1.3232,-1.3283,-1.3315,-1.3257,-1.326,-1.342,-1.3423,-1.3426,-1.3467,0,0,0,0,0,0,-1.3076,-1.3088,-1.3112,-1.3134,-1.3145,-1.3217,-1.318,-1.3181,-1.32,-1.3196,-1.3221,-1.3223,-1.3223,-1.3278,-1.3287,-1.3319,-1.3263,-1.3417,-1.3421,-1.3425,-1.3463,-1.3471,-1.3478,0,0,0,0,0,-1.3072,-1.3122,-1.3114,-1.3124,-1.3176,-1.3219,-1.3226,-1.3225,-1.3202,-1.3227,-1.3236,-1.3222,-1.331,-1.3283,-1.3294,-1.3328,-1.3415,-1.342,-1.3425,-1.3459,-1.3469,-1.3478,0,0,0,0,0,0,-1.3105,-1.3125,-1.3116,-1.3175,-1.3195,-1.3215,-1.3246,-1.3235,-1.3263,-1.3259,-1.3256,-1.3262,-1.3316,-1.3326,-1.3296,-1.339,-1.3359,-1.3366,-1.3382,-1.3391,-1.3399,-1.3396,-1.3267,0,0,0,0,0,-1.3119,-1.3152,-1.3168,-1.3219,-1.3229,-1.3236,-1.3254,-1.3252,-1.3273,-1.3282,-1.3295,-1.3316,-1.3349,-1.337,-1.3401,-1.3463,-1.3469,-1.3492,-1.3499,-1.3506,-1.3513,-1.3547,-1.3557,-1.3443,-1.3443,-1.3443,0,0,-1.3149,-1.3164,-1.3185,-1.3226,-1.3241,-1.3276,-1.3243,-1.3282,-1.3308,-1.3288,-1.3337,-1.3347,-1.3371,-1.3429,-1.3454,-1.3439,-1.3545,-1.3512,-1.3517,-1.352,-1.3553,-1.3564,-1.3573,-1.3446,-1.3446,-1.3445,0,0,-1.3222,-1.3236,-1.328,-1.3296,-1.3319,-1.3323,-1.3333,-1.3354,-1.336,-1.3409,-1.3395,-1.3426,-1.3482,-1.3499,-1.3516,-1.3593,-1.3582,-1.3603,-1.3645,-1.3678,-1.3687,-1.3695,-1.3724,-1.3734,-1.361,-1.361,-1.361,0,-1.3256,-1.3308,-1.3304,-1.3343,-1.3361,-1.3344,-1.3388,-1.3404,-1.3437,-1.345,-1.3432,-1.3501,-1.3516,-1.3578,-1.3597,-1.361,-1.3622,-1.3601,-1.3686,-1.3694,-1.3701,-1.3729,-1.3739,-1.3612,-1.3612,-1.3612,-1.3611,0,-1.3349,-1.3385,-1.3418,-1.3449,-1.3471,-1.3513,-1.3515,-1.3538,-1.3532,-1.3538,-1.3588,-1.3605,-1.3639,-1.3653,-1.3648,-1.3714,-1.3703,-1.3686,-1.3655,-1.3715,-1.374,-1.3751,-1.3616,-1.3615,-1.3614,-1.3614,0,0,-1.3446,-1.3474,-1.3486,-1.35,-1.3524,-1.3552,-1.3593,-1.3625,-1.3645,-1.3667,-1.3702,-1.3749,-1.3732,-1.3751,-1.3748,-1.3777,-1.3838,-1.3755,-1.3756,-1.3771,-1.3912,-1.3926,-1.3939,-1.383,-1.3832,-1.3833,-1.391,0,-1.3521,-1.3593,-1.359,-1.3656,-1.369,-1.3673,-1.3708,-1.3727,-1.3733,-1.3762,-1.3768,-1.3802,-1.3777,-1.3788,-1.3816,-1.3825,-1.3867,-1.3819,-1.3863,-1.3865,-1.3859,-1.3952,-1.3968,-1.404,-1.392,-1.3922,-1.3923,0,-1.3619,-1.3645,-1.3715,-1.3733,-1.3747,-1.3779,-1.3809,-1.3836,-1.3857,-1.3859,-1.3879,-1.3871,-1.3913,-1.3879,-1.3936,-1.3904,-1.3921,-1.3928,-1.3931,-1.3936,-1.3899,-1.3961,-1.4063,-1.4074,-1.3939,-1.3938,-1.3936,0,-1.3684,-1.3736,-1.3785,-1.3797,-1.382,-1.3843,-1.3853,-1.3872,-1.3892,-1.3917,-1.393,-1.3959,-1.3976,-1.4,-1.4,-1.3975,-1.4058,-1.4024,-1.4062,-1.4062,-1.4082,-1.4081,-1.4189,-1.409,-1.409,-1.409,-1.409,0,-1.377,-1.3814,-1.3814,-1.3844,-1.3893,-1.3888,-1.3937,-1.3945,-1.3961,-1.3993,-1.3979,-1.4009,-1.4007,-1.4037,-1.4038,-1.4085,-1.4093,-1.4096,-1.4096,-1.4099,-1.4098,-1.4111,-1.4107,-1.4093,-1.4092,-1.4092,-1.4091,0,-1.3852,-1.3854,-1.3906,-1.3923,-1.3928,-1.3963,-1.3978,-1.4006,-1.401,-1.405,-1.4059,-1.4066,-1.4101,-1.4103,-1.4143,-1.4143,-1.4202,-1.4195,-1.4195,-1.4194,-1.4232,-1.4229,-1.4354,-1.437,-1.426,-1.4261,-1.4262,0,-1.3907,-1.394,-1.3961,-1.398,-1.3992,-1.4025,-1.4044,-1.4041,-1.4062,-1.4087,-1.4113,-1.4146,-1.4173,-1.4229,-1.4238,-1.4268,-1.4264,-1.4305,-1.4268,-1.427,-1.4266,-1.4265,-1.4268,-1.4313,-1.4314,-1.4315,-1.4316,0,-1.4005,-1.4004,-1.4033,-1.4062,-1.4086,-1.4108,-1.4129,-1.4146,-1.4145,-1.4169,-1.4205,-1.4225,-1.4266,-1.4299,-1.4329,-1.434,-1.4328,-1.4327,-1.4338,-1.4341,-1.434,-1.4343,-1.4216,-1.4325,-1.4324,-1.4323,-1.4323,-1.4322,-1.4077,-1.4106,-1.4124,-1.4157,-1.4172,-1.4191,-1.4219,-1.4226,-1.4255,-1.4288,-1.4284,-1.4323,-1.4342,-1.438,-1.4394,-1.4424,-1.441,-1.4426,-1.443,-1.4434,-1.4439,-1.4334,-1.443,-1.4429,-1.4429,-1.4429,-1.4429,0,-1.4176,-1.4186,-1.4216,-1.4245,-1.4271,-1.4256,-1.4278,-1.4301,-1.4335,-1.4354,-1.438,-1.442,-1.4452,-1.4463,-1.4494,-1.4516,-1.4512,-1.4525,-1.4524,-1.4527,-1.4449,-1.4437,-1.4528,-1.4528,-1.4528,-1.4528,-1.4528,-1.4528,-1.423,-1.4278,-1.4279,-1.4335,-1.4345,-1.4383,-1.4397,-1.4415,-1.443,-1.4476,-1.4502,-1.4508,-1.4524,-1.4556,-1.4584,-1.4587,-1.4599,-1.4615,-1.4615,-1.4542,-1.4533,-1.4523,-1.4512,-1.4617,-1.4618,-1.4691,-1.4692,-1.4692]},{"header":{"parameterUnit":"m.s-1","parameterCategory":1,"la1":30.2991,"la2":30.254,"lo1":-89.0895,"lo2":-89.0444,"dy":0.0017,"dx":0.0017,"nx":28,"ny":28,"refTime":"2025-01-07T03:00:00:Z","depth":0,"parameterNumber":3,"parameterNumberName":"V-component_of_WINDS"},"data":[0,0,0,0,0,0,0,0,0,0,0,0,0,0,0,0,0,0,0,0,0,0,0,0,0,0,0,0,0,0,0,0,0,0,0,0,0,0,0,0,0,0,0,0,0,0,0,0,0,0,0,0,0,0,0,0,0,0,-6.5986,-6.5987,0,-6.6056,-6.6057,-6.6058,-6.6005,-6.6003,-6.6,-6.5998,-6.6064,-6.6068,-6.6072,0,0,0,0,0,0,0,0,0,0,0,0,0,-6.5801,-6.5805,-6.5986,-6.5987,-6.5988,-6.6056,-6.6057,-6.6058,-6.6005,-6.6002,-6.6,-6.5997,-6.6063,-6.6068,-6.6072,0,0,0,0,0,0,0,0,0,0,0,0,0,-6.5877,-6.5806,-6.5986,-6.597,-6.5969,-6.6056,-6.6057,-6.6058,-6.6006,-6.6002,-6.5999,-6.5996,-6.6062,-6.6067,-6.6073,-6.6178,0,0,-6.6091,-6.6093,0,0,0,0,0,0,0,0,-6.5873,-6.5884,-6.5972,-6.5971,-6.5971,-6.6019,-6.6016,-6.6098,-6.6007,-6.5992,-6.5998,-6.5994,-6.6052,-6.6058,-6.6078,-6.6181,-6.6184,-6.6091,-6.6095,-6.6097,-6.6099,0,0,0,0,0,0,0,-6.5868,-6.5881,-6.6014,-6.5973,-6.5972,-6.5957,-6.5965,-6.6032,-6.604,-6.5993,-6.5989,-6.5998,-6.6051,-6.6073,-6.608,-6.6185,-6.6091,-6.6096,-6.61,-6.6102,-6.6376,-6.6379,0,0,0,0,0,0,-6.5865,-6.5877,-6.6012,-6.6016,-6.5913,-6.5964,-6.5972,-6.6007,-6.6039,-6.6041,-6.6001,-6.5996,-6.6065,-6.6073,-6.6082,-6.6206,-6.6097,-6.6103,-6.6106,-6.6372,-6.6377,-6.6381,0,0,0,0,0,0,-6.5861,-6.5878,-6.6009,-6.5946,-6.5961,-6.5971,-6.601,-6.601,-6.6032,-6.6046,-6.6046,-6.6023,-6.6062,-6.6073,-6.6155,-6.6208,-6.6105,-6.6111,-6.6368,-6.6374,-6.6379,-6.6457,0,0,0,0,0,0,-6.5856,-6.5877,-6.5918,-6.5947,-6.5965,-6.6082,-6.6014,-6.6014,-6.6043,-6.6036,-6.6066,-6.6068,-6.606,-6.6146,-6.616,-6.6214,-6.6115,-6.6363,-6.637,-6.6377,-6.645,-6.6465,-6.6477,0,0,0,0,0,-6.585,-6.5936,-6.592,-6.5937,-6.6017,-6.6086,-6.6096,-6.6087,-6.6048,-6.6088,-6.6097,-6.6067,-6.62,-6.6155,-6.617,-6.6227,-6.636,-6.6368,-6.6376,-6.6443,-6.6462,-6.6477,0,0,0,0,0,0,-6.5911,-6.5939,-6.5922,-6.6021,-6.6052,-6.6077,-6.6128,-6.6107,-6.6148,-6.614,-6.6125,-6.6133,-6.6218,-6.623,-6.618,-6.633,-6.6273,-6.6285,-6.6319,-6.6336,-6.635,-6.6345,-6.612,0,0,0,0,0,-6.5936,-6.5991,-6.6012,-6.6097,-6.6114,-6.6118,-6.6148,-6.6139,-6.6169,-6.6181,-6.6196,-6.6225,-6.6273,-6.6305,-6.635,-6.6451,-6.6456,-6.6497,-6.6511,-6.6523,-6.6533,-6.6587,-6.6605,-6.6409,-6.6409,-6.6408,0,0,-6.5988,-6.601,-6.6046,-6.611,-6.6133,-6.6189,-6.6129,-6.6191,-6.6232,-6.619,-6.6268,-6.628,-6.6311,-6.6403,-6.6443,-6.6415,-6.6589,-6.6533,-6.6542,-6.6547,-6.6597,-6.6616,-6.6633,-6.6414,-6.6413,-6.6412,0,0,-6.6111,-6.6134,-6.6207,-6.6232,-6.6268,-6.627,-6.6288,-6.6317,-6.6323,-6.6402,-6.6372,-6.6419,-6.6503,-6.6527,-6.655,-6.6682,-6.6656,-6.6697,-6.677,-6.6822,-6.6838,-6.6851,-6.6898,-6.6916,-6.6708,-6.6708,-6.6708,0,-6.617,-6.6256,-6.6247,-6.6312,-6.634,-6.6307,-6.638,-6.6403,-6.6451,-6.6471,-6.644,-6.6544,-6.6563,-6.666,-6.6692,-6.6712,-6.6731,-6.6694,-6.6837,-6.685,-6.6863,-6.6907,-6.6925,-6.6713,-6.6712,-6.6712,-6.6711,0,-6.6327,-6.6386,-6.6441,-6.6491,-6.6525,-6.6594,-6.6594,-6.663,-6.6618,-6.6623,-6.6703,-6.6724,-6.6773,-6.6795,-6.6783,-6.689,-6.6872,-6.6839,-6.6782,-6.6886,-6.6928,-6.6945,-6.672,-6.6718,-6.6716,-6.6715,0,0,-6.649,-6.6535,-6.6555,-6.6578,-6.6615,-6.666,-6.6726,-6.6776,-6.6807,-6.6841,-6.6895,-6.6967,-6.6937,-6.6963,-6.6953,-6.7,-6.7103,-6.6961,-6.6961,-6.6986,-6.7222,-6.7246,-6.7267,-6.7086,-6.7089,-6.7092,-6.7219,0,-6.6616,-6.6734,-6.6728,-6.6838,-6.6892,-6.6861,-6.6919,-6.6947,-6.6954,-6.6999,-6.7005,-6.7057,-6.7013,-6.7029,-6.7073,-6.7081,-6.715,-6.7072,-6.7135,-6.7138,-6.7129,-6.7288,-6.7315,-6.7434,-6.7235,-6.7238,-6.724,0,-6.6778,-6.682,-6.6936,-6.6966,-6.6988,-6.704,-6.7085,-6.713,-6.7161,-6.7162,-6.7192,-6.7175,-6.724,-6.7182,-6.7271,-6.7218,-6.7243,-6.7251,-6.7255,-6.726,-6.7195,-6.7298,-6.7471,-6.7489,-6.7266,-6.7264,-6.7262,0,-6.6885,-6.6971,-6.7051,-6.7071,-6.7108,-6.7145,-6.7161,-6.7189,-6.7219,-6.7258,-6.7277,-6.7323,-6.7347,-6.7382,-6.7377,-6.7335,-6.7467,-6.7408,-6.7469,-6.747,-6.7498,-6.7497,-6.7678,-6.7515,-6.7515,-6.7515,-6.7514,0,-6.7026,-6.7098,-6.71,-6.715,-6.7229,-6.7221,-6.7299,-6.7311,-6.7336,-6.7386,-6.7361,-6.7408,-6.7398,-6.7444,-6.744,-6.7515,-6.7526,-6.7528,-6.7526,-6.753,-6.753,-6.7546,-6.7538,-6.7519,-6.7518,-6.7517,-6.7517,0,-6.716,-6.7164,-6.725,-6.7278,-6.7287,-6.7344,-6.7367,-6.7413,-6.7418,-6.7481,-6.7495,-6.7502,-6.7556,-6.7554,-6.7614,-6.7611,-6.7702,-6.7691,-6.7693,-6.769,-6.7751,-6.7746,-6.795,-6.7976,-6.7796,-6.7798,-6.7799,0,-6.7249,-6.7304,-6.7339,-6.7372,-6.7391,-6.7444,-6.7476,-6.7469,-6.7502,-6.7542,-6.7583,-6.7634,-6.7675,-6.7761,-6.777,-6.7816,-6.7805,-6.7873,-6.7811,-6.7814,-6.7806,-6.7803,-6.7808,-6.7886,-6.7888,-6.7889,-6.7891,0,-6.7408,-6.7407,-6.7455,-6.7504,-6.7542,-6.758,-6.7614,-6.7641,-6.7638,-6.7677,-6.7732,-6.7764,-6.7826,-6.7877,-6.7921,-6.7935,-6.7912,-6.791,-6.7927,-6.7931,-6.793,-6.7932,-6.7726,-6.7905,-6.7904,-6.7903,-6.7902,-6.7901,-6.7522,-6.7569,-6.7602,-6.7655,-6.7681,-6.7713,-6.7758,-6.777,-6.7816,-6.7868,-6.786,-6.7922,-6.795,-6.8007,-6.8026,-6.8073,-6.8048,-6.8072,-6.8078,-6.8084,-6.8091,-6.7923,-6.808,-6.808,-6.808,-6.8079,-6.8079,0,-6.7679,-6.7698,-6.7748,-6.7798,-6.784,-6.7816,-6.7853,-6.7889,-6.7944,-6.7974,-6.8015,-6.8078,-6.8127,-6.8141,-6.8188,-6.8223,-6.8213,-6.8235,-6.8233,-6.8236,-6.811,-6.8091,-6.8242,-6.8242,-6.8242,-6.8242,-6.8242,-6.8242,-6.7766,-6.7845,-6.7849,-6.794,-6.7958,-6.802,-6.8043,-6.8072,-6.8096,-6.8168,-6.821,-6.8219,-6.8242,-6.8291,-6.8334,-6.8337,-6.8355,-6.8381,-6.838,-6.8261,-6.8245,-6.8229,-6.8212,-6.8385,-6.8386,-6.8501,-6.8503,-6.8503]}]]